Stanton, MN

4:55 PM CST on December 13, 2017 (GMT -0600)
Stanton

Weather History for KSYN - January, 2013

Change the Weather History Date:

Thursday, January 10, 2013

  Actual Average (KLVN) Record (KLVN)
Temperature  
Mean Temperature 36 °F -  
Max Temperature 40 °F 18 °F 51 °F (2012)
Min Temperature 32 °F 0 °F -30 °F (1982)
Degree Days  
Heating Degree Days 29    
Moisture  
Dew Point 26 °F    
Average Humidity 69    
Maximum Humidity 92    
Minimum Humidity 42    
Precipitation  
Precipitation 0.18 in - - ()
Sea Level Pressure  
Sea Level Pressure 30.08 in    
Wind  
Wind Speed 10 mph (SSE)    
Max Wind Speed 15 mph    
Max Gust Speed 21 mph    
Visibility 8 miles    
Events Rain , Snow    
Averages and records for this station are not official NWS values.
T = Trace of Precipitation, MM = Missing Value Source: NWS Daily Summary

Daily Weather History Graph

Daily Weather History Graph

Search for Another Location

Airport or City:

Trip Planner

Search our weather history database for the weather conditions in past years. The results will help you decide how hot, cold, wet, or windy it might be!

Date:

Astronomy

Jan. 10, 2013 Rise Set
Actual Time 7:47 AM CST 4:52 PM CST
Civil Twilight 7:14 AM CST 5:25 PM CST
Nautical Twilight 6:38 AM CST 6:01 PM CST
Astronomical Twilight 6:03 AM CST 6:36 PM CST
Moon 6:27 AM CST (1/10) 4:01 PM CST (1/10)
Length of Visible Light 10h 11m
Length of Day
9h 05m
Waning Crescent, 2% of the Moon is Illuminated
Jan 10
Waning Crescent
Jan 11
New
Jan 18
First Quarter
Jan 26
Full
Feb 3
Last Quarter

Hourly Weather History & Observations

Time (CST) Temp. Windchill Dew Point Humidity Pressure Visibility Wind Dir Wind Speed Gust Speed Precip Events Conditions
12:32 AM 32.0 °F 25.6 °F 23.9 °F 72% 30.30 in 10.0 mi South 6.9 mph - N/A   Clear
12:52 AM 32.5 °F 24.8 °F 24.4 °F 72% 30.30 in 10.0 mi South 9.2 mph - N/A   Clear
1:12 AM 32.7 °F 24.5 °F 25.0 °F 73% 30.30 in 10.0 mi South 10.4 mph - N/A   Clear
1:32 AM 33.3 °F 24.6 °F 25.2 °F 72% 30.31 in 10.0 mi South 11.5 mph - N/A   Clear
1:53 AM 33.3 °F 24.6 °F 24.4 °F 70% 30.30 in 10.0 mi South 11.5 mph - N/A   Clear
2:12 AM 34.0 °F 26.6 °F 24.4 °F 68% 30.30 in 10.0 mi South 9.2 mph - N/A   Clear
2:32 AM 34.0 °F 26.0 °F 23.5 °F 66% 30.30 in 10.0 mi South 10.4 mph 16.1 mph N/A   Clear
2:53 AM 34.2 °F 26.2 °F 23.9 °F 66% 30.29 in 10.0 mi South 10.4 mph - N/A   Clear
3:12 AM 34.3 °F 26.5 °F 23.9 °F 66% 30.29 in 10.0 mi South 10.4 mph 16.1 mph N/A   Clear
3:32 AM 34.2 °F 25.7 °F 23.9 °F 66% 30.29 in 10.0 mi South 11.5 mph - N/A   Clear
3:53 AM 33.8 °F 26.4 °F 24.3 °F 68% 30.28 in 10.0 mi South 9.2 mph - N/A   Clear
4:12 AM 33.4 °F 25.4 °F 24.3 °F 69% 30.27 in 10.0 mi South 10.4 mph - N/A   Clear
4:32 AM 33.8 °F 26.4 °F 24.4 °F 69% 30.27 in 10.0 mi South 9.2 mph - N/A   Clear
4:53 AM 34.0 °F 26.6 °F 24.3 °F 68% 30.26 in 10.0 mi South 9.2 mph - N/A   Clear
5:12 AM 33.8 °F 27.0 °F 23.9 °F 67% 30.26 in 10.0 mi South 8.1 mph - N/A   Clear
5:32 AM 33.1 °F 25.5 °F 24.1 °F 70% 30.26 in 10.0 mi South 9.2 mph - N/A   Clear
5:53 AM 32.9 °F 25.3 °F 24.4 °F 71% 30.26 in 10.0 mi South 9.2 mph - N/A   Clear
6:12 AM 32.4 °F 24.6 °F 24.3 °F 72% 30.26 in 10.0 mi South 9.2 mph - N/A   Clear
6:32 AM 32.4 °F 23.5 °F 24.3 °F 72% 30.26 in 10.0 mi South 11.5 mph - N/A   Clear
6:53 AM 32.4 °F 24.0 °F 24.4 °F 73% 30.26 in 10.0 mi South 10.4 mph - N/A   Clear
7:12 AM 32.5 °F 24.2 °F 24.4 °F 72% 30.26 in 10.0 mi South 10.4 mph - N/A   Clear
7:32 AM 32.4 °F 24.0 °F 24.4 °F 73% 30.26 in 10.0 mi South 10.4 mph 18.4 mph N/A   Clear
7:52 AM 32.0 °F 24.8 °F 23.9 °F 72% 30.25 in 10.0 mi South 8.1 mph - N/A   Clear
8:13 AM 32.0 °F 24.2 °F 23.9 °F 72% 30.24 in 10.0 mi South 9.2 mph - N/A   Clear
8:32 AM 32.0 °F 23.6 °F 23.9 °F 72% 30.24 in 10.0 mi South 10.4 mph - N/A   Clear
8:52 AM 32.9 °F 23.7 °F 24.3 °F 71% 30.23 in 10.0 mi South 12.7 mph 18.4 mph N/A   Clear
9:13 AM 34.0 °F 24.6 °F 24.6 °F 69% 30.22 in 10.0 mi South 13.8 mph 20.7 mph N/A   Clear
9:52 AM 35.8 °F 27.8 °F 24.8 °F 64% 30.20 in 10.0 mi South 11.5 mph 19.6 mph N/A   Clear
10:13 AM 36.7 °F 27.6 °F 24.8 °F 62% 30.20 in 10.0 mi South 15.0 mph - N/A   Clear
10:32 AM 37.6 °F 28.8 °F 24.3 °F 59% 30.18 in 10.0 mi South 15.0 mph 18.4 mph N/A   Clear
10:52 AM 38.1 °F 29.8 °F 23.9 °F 57% 30.18 in 10.0 mi South 13.8 mph 18.4 mph N/A   Clear
11:13 AM 38.5 °F 31.1 °F 22.8 °F 53% 30.16 in 10.0 mi South 11.5 mph 18.4 mph N/A   Clear
11:32 AM 38.3 °F 30.5 °F 22.5 °F 53% 30.15 in 10.0 mi South 12.7 mph 20.7 mph N/A   Clear
11:52 AM 38.7 °F 31.8 °F 22.1 °F 51% 30.13 in 10.0 mi South 10.4 mph - N/A   Clear
12:13 PM 39.6 °F 32.1 °F 21.2 °F 48% 30.12 in 10.0 mi SSE 12.7 mph 18.4 mph N/A   Clear
12:32 PM 39.9 °F 35.1 °F 20.8 °F 47% 30.10 in 10.0 mi SSE 6.9 mph - N/A   Clear
12:52 PM 40.1 °F 34.7 °F 19.8 °F 44% 30.08 in 10.0 mi SSE 8.1 mph - N/A   Clear
1:32 PM 40.1 °F 34.7 °F 19.4 °F 43% 30.05 in 10.0 mi SSE 8.1 mph - N/A   Clear
1:53 PM 39.9 °F 36.7 °F 20.1 °F 45% 30.04 in 10.0 mi ESE 4.6 mph - N/A   Clear
2:12 PM 40.5 °F 35.8 °F 18.9 °F 42% 30.03 in 10.0 mi SE 6.9 mph - N/A   Mostly Cloudy
2:33 PM 40.6 °F 35.4 °F 18.9 °F 42% 30.03 in 10.0 mi SE 8.1 mph - N/A   Overcast
2:53 PM 40.1 °F 34.7 °F 19.8 °F 44% 30.01 in 10.0 mi ESE 8.1 mph - N/A   Overcast
3:12 PM 38.5 °F 33.4 °F 22.3 °F 52% 30.00 in 10.0 mi East 6.9 mph - N/A   Mostly Cloudy
3:33 PM 37.9 °F 34.4 °F 22.8 °F 55% 30.00 in 10.0 mi ESE 4.6 mph - N/A   Mostly Cloudy
3:52 PM 38.5 °F 32.7 °F 22.3 °F 52% 29.99 in 10.0 mi SE 8.1 mph - N/A Rain Rain
4:12 PM 37.4 °F 31.4 °F 24.4 °F 60% 29.97 in 7.0 mi ESE 8.1 mph - N/A Rain Light Rain
4:33 PM 36.7 °F 31.2 °F 26.2 °F 66% 29.96 in 7.0 mi ESE 6.9 mph - 0.01 in Rain Light Rain
4:52 PM 36.5 °F 31.0 °F 26.8 °F 68% 29.94 in 10.0 mi East 6.9 mph - 0.02 in Rain Light Rain
5:12 PM 36.7 °F 31.2 °F 26.2 °F 66% 29.93 in 10.0 mi East 6.9 mph - N/A Rain Rain
5:33 PM 36.5 °F 30.3 °F 27.3 °F 69% 29.93 in 5.0 mi East 8.1 mph - 0.02 in Rain Rain
5:52 PM 35.6 °F 29.9 °F 28.0 °F 74% 29.92 in 4.0 mi East 6.9 mph - 0.06 in   Overcast
6:13 PM 35.1 °F 31.0 °F 28.9 °F 78% 29.91 in 5.0 mi ESE 4.6 mph - 0.01 in   Overcast
6:32 PM 35.1 °F 28.6 °F 29.5 °F 80% 29.90 in 5.0 mi ESE 8.1 mph - 0.03 in   Overcast
6:53 PM 34.7 °F 27.5 °F 30.2 °F 84% 29.87 in 5.0 mi ESE 9.2 mph - 0.05 in   Overcast
7:12 PM 34.7 °F 26.9 °F 30.9 °F 86% 29.85 in 5.0 mi ESE 10.4 mph - 0.01 in   Overcast
7:32 PM 34.9 °F 29.0 °F 31.8 °F 89% 29.84 in 5.0 mi ESE 6.9 mph - 0.03 in Rain Light Rain
7:52 PM 35.1 °F 27.9 °F 32.0 °F 89% 29.82 in 7.0 mi SE 9.2 mph - 0.04 in Rain Rain
8:12 PM 35.2 °F 28.8 °F 32.0 °F 88% 29.83 in 7.0 mi SSE 8.1 mph - 0.01 in Rain Light Rain
8:52 PM 35.6 °F 28.0 °F 32.4 °F 88% 29.79 in 7.0 mi SE 10.4 mph 16.1 mph 0.01 in   Overcast
9:13 PM 35.6 °F 28.6 °F 32.9 °F 90% 29.78 in 5.0 mi SE 9.2 mph - N/A   Overcast
9:32 PM 35.8 °F 28.3 °F 33.1 °F 90% 29.76 in 4.0 mi SE 10.4 mph 16.1 mph N/A   Overcast
9:53 PM 36.0 °F 29.0 °F 33.3 °F 90% 29.76 in 4.0 mi SSE 9.2 mph - N/A   Overcast
10:13 PM 36.0 °F 27.5 °F 33.4 °F 91% 29.73 in 4.0 mi SSE 12.7 mph 18.4 mph N/A   Overcast
10:32 PM 36.0 °F 28.0 °F 33.4 °F 91% 29.75 in 3.0 mi SSE 11.5 mph 17.3 mph N/A   Overcast
10:53 PM 35.8 °F 28.8 °F 33.4 °F 91% 29.75 in 3.0 mi South 9.2 mph - N/A   Overcast
11:13 PM 35.6 °F 27.5 °F 33.3 °F 91% 29.75 in 1.5 mi South 11.5 mph 16.1 mph N/A   Overcast
11:32 PM 35.6 °F 27.1 °F 33.4 °F 92% 29.74 in 1.5 mi SSE 12.7 mph 16.1 mph N/A Snow Light Snow
11:53 PM 35.6 °F 27.5 °F 33.4 °F 92% 29.73 in 2.0 mi South 11.5 mph - N/A Rain Light Rain